Regional Weather Roundup
Issued by NWS Boston, MA

Home | Current Version | Previous Version | Text Only | Print | Product List | Glossary On
Versions: 1 2 3 4 5 6 7 8 9 10 11 12 13 14 15 16 17 18 19 20 21 22 23 24 25 26 27 28 29 30 31 32 33 34 35 36 37 38 39 40 41 42 43 44 45 46 47 48 49 50
469
ASUS41 KBOX 160000
RWRBOX

REGIONAL WEATHER ROUNDUP
NATIONAL WEATHER SERVICE BOSTON/NORTON MA
700 PM EST FRI NOV 15 2019

NOTE:  "FAIR" INDICATES FEW OR NO CLOUDS BELOW 12,000 FEET WITH NO
SIGNIFICANT WEATHER AND/OR OBSTRUCTIONS TO VISIBILITY.

MAZALL-160100-
EASTERN MASSACHUSETTS

CITY           SKY/WX    TMP DP  RH WIND       PRES   REMARKS
BOSTON         FAIR      49  23  36 W12       30.09R
6HR MIN TEMP:  49; 6HR MAX TEMP:  54;

BEVERLY        FAIR      43  24  47 W7        30.07R
LAWRENCE       FAIR      44  26  49 W10G18    30.09R
BEDFORD        FAIR      43  23  45 W6        30.08R
BLUE HILL        N/A     41  21  44 W15       30.06R
NORWOOD        FAIR      33  21  61 CALM      30.10R
MARSHFIELD     NOT AVBL
PLYMOUTH       FAIR      36  31  82 SW3       30.10R
TAUNTON        FAIR      34  30  85 CALM      30.10R
NEW BEDFORD    FAIR      39  29  67 W6        30.10R
$$

MAZALL-160100-
CAPE COD AND THE ISLANDS

CITY           SKY/WX    TMP DP  RH WIND       PRES   REMARKS
FALMOUTH       CLEAR     43  32  65 W7        30.10R
HYANNIS        NOT AVBL
CHATHAM        FAIR      46  37  71 VRB7      30.10R
PROVINCETOWN   FAIR      48  33  56 W12       30.09R
NANTUCKET      FAIR      50  41  71 W15G22    30.11R
MARTHAS VNYRD  FAIR      48  33  56 W8        30.10S
$$

MAZALL-160100-
CENTRAL AND WESTERN MASSACHUSETTS

CITY           SKY/WX    TMP DP  RH WIND       PRES   REMARKS
WORCESTER      FAIR      39  23  52 W7        30.07R
6HR MIN TEMP:  39; 6HR MAX TEMP:  45;

FITCHBURG      FAIR      42  25  50 NW8       30.09R
ORANGE         FAIR      42  26  53 NW14      30.11R
SPRINGFIELD    NOT AVBL
WESTFIELD      FAIR      32  21  64 CALM      30.12R
NORTH ADAMS    CLOUDY    38  26  62 W14G22    30.16R WCI  30
PITTSFIELD     CLOUDY    37  28  70 VRB7G18   30.12R WCI  32
$$

RIZALL-160100-
RHODE ISLAND

CITY           SKY/WX    TMP DP  RH WIND       PRES   REMARKS
PROVIDENCE     FAIR      43  27  53 W7        30.12R
6HR MIN TEMP:  41; 6HR MAX TEMP:  55;

NEWPORT        FAIR      46  29  51 W8        30.11R
BLOCK ISLAND   FAIR      47  34  60 W12       30.13R
SMITHFIELD     FAIR      41  22  46 W6        30.10R
WESTERLY       FAIR      47  29  49 W5        30.13R
$$

CTZALL-160100-
CONNECTICUT

CITY           SKY/WX    TMP DP  RH WIND       PRES   REMARKS
BRADLEY INTL   MOCLDY    42  21  43 W6        30.13R
6HR MIN TEMP:  41; 6HR MAX TEMP:  54;

HARTFORD       FAIR      38  23  55 CALM      30.14R
BRIDGEPORT     FAIR      45  25  45 CALM      30.14R
DANBURY        FAIR      31  24  75 CALM      30.14S
GROTON         NOT AVBL
NEW HAVEN      FAIR      40  29  64 CALM      30.13S
CHESTER        FAIR      43  25  49 W3        30.12S
MERIDEN        FAIR      34  24  67 CALM      30.13R
WILLIMANTIC    FAIR      33  23  66 CALM      30.14R
OXFORD         FAIR      40  20  44 SW5       30.12S
$$

MEZ002-015-021-024-NHZ003-005-008-011-012-014-VTZ005-008-160100-
NORTHERN NEW ENGLAND

CITY           SKY/WX    TMP DP  RH WIND       PRES   REMARKS
PORTLAND ME    MOCLDY    42  25  50 W7        30.02S
6HR MIN TEMP:  42; 6HR MAX TEMP:  48;

BANGOR ME      MOCLDY    39  25  57 SW6       29.95F
CONCORD NH     CLOUDY    41  26  55 W13       30.06S
MANCHESTER NH  FAIR      44  26  49 NW12G21   30.05S
NASHUA NH      FAIR      43  27  53 W8G17     30.08R
PORTSMOUTH NH  NOT AVBL
JAFFREY NH     FAIR      40  25  55 W14G30    30.07R
KEENE NH       CLOUDY    41  25  53 W16G25    30.12R
BURLINGTON VT  LGT RAIN  33  21  61 NW26G36   30.16R WCI  20
MT. WASHINGTON NOT AVBL
$$

NYZ052-076-160100-
EASTERN NEW YORK

CITY           SKY/WX    TMP DP  RH WIND       PRES   REMARKS
ALBANY         CLOUDY    40  27  59 NW12G21   30.20S
6HR MIN TEMP:  40; 6HR MAX TEMP:  50;

NEW YORK CITY  MOCLDY    50  20  30 W10       30.16R
6HR MIN TEMP:  50; 6HR MAX TEMP:  52;

$$

ANZALL-160100-
MARINE OBSERVATIONS

STATION/POSITION TIME  TEMP    WIND        PRES    VSBY  WAVE
                       AIR SEA DIR/SP/G                  HT/PER
                 (UTC) (F)     (DEG/KT/KT) (MB)    (MI)  (FT/S)
BOSTON BUOY      2250   50 52  260/ 16/ 17 1017.5          2/ 3
BUZZARDS BAY     2300   51     260/ 22/ 25 1019.5R
NANTUCKET SOUND  NOT AVBL
MASS BAY-STELLWA 2304   50 49  260/ 17/ 19 1017.3R  1 7/8  2/ 3
ISLE OF SHOALS   2300   47     260/ 20/ 21 1016.9R
S OF BLOCK IS    2330      58                N/A           5/ 5
$$

......................KEY.........................
  SKY/WX - SKY CONDITION/PRESENT WEATHER
  TMP    - TEMPERATURE IN FAHRENHEIT
  DWPT   - DEWPOINT IN FAHRENHEIT
  RH     - RELATIVE HUMIDITY IN PERCENT
  WIND   - DIRECTION AND SPEED IN MPH
  PRES   - MEAN SEA LEVEL PRESSURE IN INCHES OF HG
  WCI    - WIND CHILL INDEX
  VSB    - VISIBILITY IN MILES
  HX     - HEAT INDEX
  TC     - TEMPERATURE IN CELSIUS
  VRB    - VARIABLE WIND DIRECTION
  N/A    - NOT AVAILABLE




USA.gov is the U.S. government's official web portal to all federal, state and local government web resources and services.